• In Uzbekistan
  • List of Countries
  • For 7 days
  • Water Temperature
  • Satellite Maps
  • Weather Map
  • Weather Widgets
  • user-avatar
    Login

    Hourly Weather Dapaon

    Today, 18 October, Thursday

    Time Temperature Precipitation Wind Pressure Humidity
    00:00 +30°C° 0 mm 2 mps 732 mmHg 51%
    01:00 +29°C° 0 mm 2 mps 731 mmHg 54%
    02:00 +29°C° 0 mm 2 mps 731 mmHg 58%
    03:00 +28°C° 0 mm 2 mps 730 mmHg 61%
    04:00 +28°C° 0 mm 2 mps 731 mmHg 63%
    05:00 +27°C° 0 mm 2 mps 731 mmHg 66%
    06:00 +27°C° 0 mm 2 mps 731 mmHg 68%
    07:00 +29°C° 0 mm 3 mps 731 mmHg 63%
    08:00 +31°C° 0 mm 3 mps 731 mmHg 58%
    09:00 +33°C° 0 mm 4 mps 732 mmHg 53%
    10:00 +35°C° 0 mm 3 mps 731 mmHg 47%
    11:00 +36°C° 0 mm 3 mps 731 mmHg 41%
    12:00 +37°C° 0 mm 3 mps 731 mmHg 39%
    13:00 +38°C° 0 mm 2 mps 730 mmHg 36%
    14:00 +38°C° 0 mm 2 mps 729 mmHg 33%
    15:00 +39°C° 0 mm 2 mps 729 mmHg 29%
    16:00 +38°C° 0 mm 2 mps 729 mmHg 32%
    17:00 +36°C° 0 mm 2 mps 729 mmHg 34%
    18:00 +35°C° 0 mm 2 mps 729 mmHg 37%
    19:00 +34°C° 0 mm 2 mps 729 mmHg 39%
    20:00 +34°C° 0 mm 2 mps 730 mmHg 40%
    21:00 +32°C° 0 mm 2 mps 730 mmHg 42%
    22:00 +31°C° 0 mm 2 mps 730 mmHg 46%
    23:00 +31°C° 0 mm 2 mps 730 mmHg 50%

    Tomorrow, 19 October, Friday

    Time Temperature Precipitation Wind Pressure Humidity
    00:00 +30°C° 0 mm 3 mps 730 mmHg 54%
    01:00 +29°C° 0 mm 3 mps 730 mmHg 58%
    02:00 +29°C° 0 mm 3 mps 730 mmHg 62%
    03:00 +28°C° 0 mm 3 mps 730 mmHg 66%
    04:00 +28°C° 0 mm 3 mps 730 mmHg 68%
    05:00 +28°C° 0 mm 3 mps 730 mmHg 70%
    06:00 +27°C° 0 mm 3 mps 731 mmHg 72%
    07:00 +29°C° 0 mm 4 mps 731 mmHg 67%
    08:00 +30°C° 0 mm 4 mps 732 mmHg 63%
    09:00 +33°C° 0 mm 4 mps 732 mmHg 58%
    10:00 +34°C° 0 mm 4 mps 732 mmHg 52%
    11:00 +36°C° 0 mm 3 mps 731 mmHg 46%
    12:00 +38°C° 0 mm 2 mps 731 mmHg 40%
    13:00 +38°C° 0 mm 2 mps 730 mmHg 36%
    14:00 +39°C° 0 mm 2 mps 729 mmHg 33%
    15:00 +39°C° 0 mm 2 mps 728 mmHg 30%
    16:00 +38°C° 0 mm 2 mps 728 mmHg 32%
    17:00 +37°C° 0 mm 2 mps 729 mmHg 35%
    18:00 +34°C° 0 mm 1 mps 729 mmHg 38%
    19:00 +34°C° 0 mm 1 mps 729 mmHg 40%
    20:00 +33°C° 0 mm 1 mps 730 mmHg 42%
    21:00 +32°C° 0 mm 1 mps 730 mmHg 44%
    22:00 +32°C° 0 mm 1 mps 730 mmHg 46%
    23:00 +31°C° 0 mm 1 mps 730 mmHg 47%

    Day after tomorrow, 20 October, Saturday

    Time Temperature Precipitation Wind Pressure Humidity
    00:00 +31°C° 0 mm 1 mps 730 mmHg 49%
    01:00 +30°C° 0 mm 2 mps 730 mmHg 51%
    02:00 +29°C° 0 mm 2 mps 729 mmHg 54%
    03:00 +29°C° 0 mm 2 mps 729 mmHg 56%
    04:00 +29°C° 0 mm 2 mps 729 mmHg 58%
    05:00 +28°C° 0 mm 2 mps 730 mmHg 60%
    06:00 +28°C° 0 mm 2 mps 730 mmHg 62%
    07:00 +30°C° 0 mm 2 mps 731 mmHg 58%
    08:00 +32°C° 0 mm 2 mps 731 mmHg 53%
    09:00 +34°C° 0 mm 3 mps 732 mmHg 49%
    10:00 +36°C° 0 mm 2 mps 731 mmHg 44%
    11:00 +37°C° 0 mm 1 mps 731 mmHg 38%
    12:00 +40°C° 0 mm 1 mps 731 mmHg 33%
    13:00 +39°C° 0 mm 1 mps 730 mmHg 32%
    14:00 +39°C° 0 mm 1 mps 729 mmHg 30%
    15:00 +39°C° 0 mm 2 mps 728 mmHg 29%
    16:00 +38°C° 0 mm 2 mps 728 mmHg 31%
    17:00 +37°C° 0 mm 2 mps 728 mmHg 34%
    18:00 +35°C° 0 mm 2 mps 729 mmHg 36%
    19:00 +35°C° 0 mm 2 mps 729 mmHg 38%
    20:00 +33°C° 0 mm 1 mps 730 mmHg 40%
    21:00 +32°C° 0 mm 1 mps 730 mmHg 42%
    22:00 +32°C° 0 mm 1 mps 730 mmHg 43%
    23:00 +31°C° 0 mm 1 mps 730 mmHg 44%

    21 October, Sunday

    Time Temperature Precipitation Wind Pressure Humidity
    00:00 +31°C° 0 mm 1 mps 730 mmHg 46%
    01:00 +30°C° 0 mm 1 mps 729 mmHg 48%
    02:00 +30°C° 0 mm 2 mps 729 mmHg 50%
    03:00 +29°C° 0 mm 2 mps 729 mmHg 52%
    04:00 +29°C° 0 mm 2 mps 729 mmHg 55%
    05:00 +28°C° 0 mm 2 mps 729 mmHg 58%
    06:00 +28°C° 0 mm 2 mps 729 mmHg 61%
    07:00 +30°C° 0 mm 2 mps 730 mmHg 57%
    08:00 +33°C° 0 mm 3 mps 730 mmHg 53%
    09:00 +35°C° 0 mm 3 mps 731 mmHg 49%
    10:00 +36°C° 0 mm 3 mps 730 mmHg 42%
    11:00 +38°C° 0 mm 2 mps 730 mmHg 35%
    12:00 +40°C° 0 mm 1 mps 729 mmHg 28%
    13:00 +40°C° 0 mm 2 mps 729 mmHg 25%
    14:00 +42°C° 0 mm 3 mps 728 mmHg 21%
    15:00 +43°C° 0 mm 3 mps 727 mmHg 18%
    16:00 +40°C° 0 mm 3 mps 728 mmHg 20%
    17:00 +38°C° 0 mm 2 mps 728 mmHg 22%
    18:00 +36°C° 0 mm 2 mps 728 mmHg 24%
    19:00 +35°C° 0 mm 2 mps 729 mmHg 25%
    20:00 +34°C° 0 mm 2 mps 729 mmHg 27%
    21:00 +32°C° 0 mm 2 mps 730 mmHg 29%
    22:00 +32°C° 0 mm 2 mps 730 mmHg 34%
    23:00 +31°C° 0 mm 2 mps 730 mmHg 38%

    22 October, Monday

    Time Temperature Precipitation Wind Pressure Humidity
    00:00 +30°C° 0 mm 2 mps 730 mmHg 43%
    01:00 +29°C° 0 mm 2 mps 729 mmHg 49%
    02:00 +29°C° 0 mm 2 mps 729 mmHg 54%
    03:00 +28°C° 0 mm 2 mps 729 mmHg 60%
    04:00 +28°C° 0 mm 2 mps 729 mmHg 63%
    05:00 +28°C° 0 mm 2 mps 730 mmHg 66%
    06:00 +27°C° 0 mm 2 mps 730 mmHg 70%
    07:00 +29°C° 0 mm 3 mps 730 mmHg 64%
    08:00 +32°C° 0 mm 4 mps 731 mmHg 59%
    09:00 +33°C° 0 mm 4 mps 731 mmHg 54%
    10:00 +35°C° 0 mm 4 mps 731 mmHg 47%
    11:00 +37°C° 0 mm 3 mps 730 mmHg 41%
    12:00 +38°C° 0 mm 3 mps 729 mmHg 35%
    13:00 +39°C° 0 mm 2 mps 729 mmHg 31%
    14:00 +40°C° 0 mm 2 mps 728 mmHg 27%
    15:00 +41°C° 0 mm 1 mps 728 mmHg 23%
    16:00 +39°C° 0 mm 1 mps 728 mmHg 25%
    17:00 +37°C° 0 mm 1 mps 728 mmHg 27%
    18:00 +35°C° 0 mm 1 mps 729 mmHg 29%
    19:00 +35°C° 0 mm 2 mps 729 mmHg 30%
    20:00 +35°C° 0 mm 2 mps 730 mmHg 32%
    21:00 +34°C° 0 mm 2 mps 730 mmHg 33%
    22:00 +32°C° 0 mm 2 mps 730 mmHg 35%
    23:00 +32°C° 0 mm 2 mps 730 mmHg 38%

    23 October, Tuesday

    Time Temperature Precipitation Wind Pressure Humidity
    00:00 +31°C° 0 mm 2 mps 730 mmHg 40%
    01:00 +30°C° 0 mm 2 mps 730 mmHg 43%
    02:00 +30°C° 0 mm 2 mps 729 mmHg 47%
    03:00 +29°C° 0 mm 1 mps 729 mmHg 51%
    04:00 +29°C° 0 mm 2 mps 730 mmHg 54%
    05:00 +28°C° 0 mm 2 mps 730 mmHg 57%
    06:00 +28°C° 0 mm 2 mps 731 mmHg 61%
    07:00 +30°C° 0 mm 3 mps 731 mmHg 57%
    08:00 +32°C° 0 mm 4 mps 731 mmHg 53%
    09:00 +34°C° 0 mm 4 mps 732 mmHg 49%
    10:00 +36°C° 0 mm 4 mps 731 mmHg 44%
    11:00 +37°C° 0 mm 4 mps 731 mmHg 39%
    12:00 +39°C° 0 mm 3 mps 730 mmHg 34%
    13:00 +40°C° 0 mm 2 mps 729 mmHg 30%
    14:00 +40°C° 0 mm 2 mps 729 mmHg 26%
    15:00 +41°C° 0 mm 1 mps 728 mmHg 22%
    16:00 +40°C° 0 mm 1 mps 729 mmHg 24%
    17:00 +37°C° 0 mm 1 mps 729 mmHg 27%
    18:00 +36°C° 0 mm 1 mps 729 mmHg 29%
    19:00 +35°C° 0 mm 1 mps 729 mmHg 30%
    20:00 +35°C° 0 mm 2 mps 730 mmHg 31%
    21:00 +34°C° 0 mm 2 mps 730 mmHg 32%
    22:00 +34°C° 0 mm 2 mps 730 mmHg 34%
    23:00 +32°C° 0 mm 2 mps 730 mmHg 36%
    Show more